FW3849 Weather Reports


time (UTC)temp
F
wind
direction
speed
knots
gust
knots
rain 1hr
in
rain 24hr
in
rain mn
in
humidity
%
barometer
mb
20260509203602 90 212 6.1 10.4 0.00 0.00 0.00 20 1008.6
20260509203058 90 252 5.2 10.4 0.00 0.00 0.00 21 1008.7
20260509202600 90 185 5.2 10.4 0.00 0.00 0.00 21 1008.7
20260509202057 90 204 4.3 7.0 0.00 0.00 0.00 24 1008.8
20260509201601 89 277 7.8 12.2 0.00 0.00 0.00 23 1009.0
20260509200554 89 226 5.2 9.6 0.00 0.00 0.00 24 1009.0
20260509195552 88 164 2.6 9.6 0.00 0.00 0.00 25 1009.3
20260509195051 88 183 4.3 13.9 0.00 0.00 0.00 25 1009.3
20260509194551 88 229 7.0 13.9 0.00 0.00 0.00 26 1009.4
20260509194051 88 239 3.5 10.4 0.00 0.00 0.00 27 1009.4
20260509193550 88 148 2.6 10.4 0.00 0.00 0.00 27 1009.5
20260509193050 88 239 7.0 12.2 0.00 0.00 0.00 27 1009.6
20260509192547 88 195 7.0 12.2 0.00 0.00 0.00 28 1009.7
20260509192047 87 212 6.1 9.6 0.00 0.00 0.00 29 1009.8
20260509191546 87 243 5.2 11.3 0.00 0.00 0.00 31 1009.8
20260509190544 86 196 3.5 8.7 0.00 0.00 0.00 30 1010.0
20260509190051 86 147 3.5 11.3 0.00 0.00 0.00 31 1010.1
20260509185543 86 205 7.8 13.0 0.00 0.00 0.00 31 1010.0
20260509185042 86 187 6.1 13.0 0.00 0.00 0.00 32 1010.0
20260509184540 85 192 4.3 12.2 0.00 0.00 0.00 33 1010.1
20260509184039 85 173 3.5 10.4 0.00 0.00 0.00 34 1010.3
20260509183539 85 183 4.3 10.4 0.00 0.00 0.00 35 1010.4
20260509183040 85 218 6.1 10.4 0.00 0.00 0.00 35 1010.4
20260509182537 85 191 4.3 11.3 0.00 0.00 0.00 35 1010.6
20260509182035 84 181 7.8 11.3 0.00 0.00 0.00 36 1010.6
20260509181538 83 98 4.3 11.3 0.00 0.00 0.00 38 1010.8
20260509180537 83 248 5.2 11.3 0.00 0.00 0.00 38 1010.9
20260509180038 83 199 4.3 10.4 0.00 0.00 0.00 38 1010.9
20260509175535 82 205 5.2 9.6 0.00 0.00 0.00 40 1011.0
20260509175034 82 168 7.0 9.6 0.00 0.00 0.00 39 1011.1
20260509174533 82 206 2.6 8.7 0.00 0.00 0.00 43 1011.3
20260509174031 81 192 4.3 8.7 0.00 0.00 0.00 43 1011.3
20260509173532 81 208 4.3 11.3 0.00 0.00 0.00 41 1011.3
20260509173030 81 212 5.2 11.3 0.00 0.00 0.00 42 1011.3
20260509172529 81 214 5.2 10.4 0.00 0.00 0.00 44 1011.4
20260509172029 80 192 6.1 10.4 0.00 0.00 0.00 45 1011.4
20260509171536 80 177 4.3 10.4 0.00 0.00 0.00 46 1011.3
20260509170524 79 198 4.3 7.8 0.00 0.00 0.00 47 1011.5
20260509170027 79 198 4.3 7.8 0.00 0.00 0.00 48 1011.6
20260509165519 78 220 3.5 10.4 0.00 0.00 0.00 49 1011.6
20260509165018 78 197 7.0 11.3 0.00 0.00 0.00 49 1011.5
20260509164517 78 201 5.2 11.3 0.00 0.00 0.00 50 1011.8
20260509164016 77 152 4.3 8.7 0.00 0.00 0.00 51 1011.8
20260509163516 78 187 4.3 7.8 0.00 0.00 0.00 51 1011.9
20260509163015 77 190 2.6 5.2 0.00 0.00 0.00 52 1011.9
20260509162513 76 177 0.9 9.6 0.00 0.00 0.00 52 1012.0
20260509162014 76 166 4.3 9.6 0.00 0.00 0.00 53 1012.2
20260509161512 75 141 3.5 9.6 0.00 0.00 0.00 55 1012.1
20260509160513 75 117 4.3 9.6 0.00 0.00 0.00 55 1012.3
20260509160011 75 191 3.5 7.8 0.00 0.00 0.00 55 1012.1
20260509155511 75 187 3.5 9.6 0.00 0.00 0.00 56 1012.1
20260509155007 74 146 4.3 9.6 0.00 0.00 0.00 56 1012.1
20260509154506 74 199 3.5 9.6 0.00 0.00 0.00 56 1012.1
20260509154005 74 194 5.2 9.6 0.00 0.00 0.00 56 1012.0
20260509153607 74 160 4.3 8.7 0.00 0.00 0.00 57 1011.9
20260509153004 74 141 3.5 8.7 0.00 0.00 0.00 56 1011.9
20260509152503 74 108 3.5 7.8 0.00 0.00 0.00 56 1011.8
20260509152004 73 179 2.6 7.8 0.00 0.00 0.00 57 1011.8
20260509151501 72 172 3.5 7.0 0.00 0.00 0.00 57 1011.9
20260509150501 72 154 3.5 7.8 0.00 0.00 0.00 57 1011.9
20260509150005 72 168 4.3 7.8 0.00 0.00 0.00 57 1012.0
20260509145600 72 127 3.5 9.6 0.00 0.00 0.00 58 1012.0
20260509145103 72 218 4.3 9.6 0.00 0.00 0.00 58 1012.2
20260509144558 71 176 5.2 8.7 0.00 0.00 0.00 57 1012.2
20260509144057 71 154 5.2 9.6 0.00 0.00 0.00 58 1012.1
20260509143558 70 206 5.2 10.4 0.00 0.00 0.00 58 1012.2
20260509143057 70 134 4.3 10.4 0.00 0.00 0.00 58 1012.4
20260509142555 70 179 7.0 10.4 0.00 0.00 0.00 58 1012.3
20260509142057 70 205 4.3 8.7 0.00 0.00 0.00 59 1012.3
20260509141553 68 202 6.1 8.7 0.00 0.00 0.00 60 1012.3
20260509140553 68 164 4.3 8.7 0.00 0.00 0.00 60 1012.3
20260509135551 67 187 4.3 7.8 0.00 0.00 0.00 63 1012.2
20260509135050 67 147 4.3 8.7 0.00 0.00 0.00 64 1012.1
20260509134623 66 178 4.3 9.6 0.00 0.00 0.00 65 1012.1
20260509134051 66 183 4.3 9.6 0.00 0.00 0.00 67 1012.0
20260509133546 65 181 3.5 8.7 0.00 0.00 0.00 68 1012.1
20260509133047 64 198 4.3 7.8 0.00 0.00 0.00 68 1012.1
20260509132544 64 181 5.2 7.8 0.00 0.00 0.00 68 1012.2
20260509132043 64 154 3.5 7.8 0.00 0.00 0.00 68 1012.3
20260509131549 63 187 2.6 7.0 0.00 0.00 0.00 68 1012.4
20260509130540 63 193 1.7 4.3 0.00 0.00 0.00 68 1012.3
20260509130041 63 117 0.9 2.6 0.00 0.00 0.00 68 1012.2
20260509125539 62 37 0.0 2.6 0.00 0.00 0.00 68 1012.3
20260509125039 62 22 0.0 1.7 0.00 0.00 0.00 69 1012.3
20260509124539 62 20 0.0 2.6 0.00 0.00 0.00 69 1012.3
20260509124040 61 20 0.9 2.6 0.00 0.00 0.00 69 1012.3
20260509123538 61 20 1.7 2.6 0.00 0.00 0.00 69 1012.4
20260509123038 60 350 0.0 1.7 0.00 0.00 0.00 67 1012.2
20260509122537 61 350 0.0 1.7 0.00 0.00 0.00 67 1012.1
20260509122036 61 350 0.9 1.7 0.00 0.00 0.00 67 1012.2
20260509121535 61 350 0.9 1.7 0.00 0.00 0.00 67 1012.1
20260509120541 61 351 0.0 1.7 0.00 0.00 0.00 66 1011.8
20260509120043 61 351 0.0 1.7 0.00 0.00 0.00 66 1011.7
20260509115539 61 351 0.0 0.9 0.00 0.00 0.00 66 1011.6
20260509115039 61 351 0.0 0.9 0.00 0.00 0.00 66 1011.5
20260509114543 61 351 0.0 0.9 0.00 0.00 0.00 66 1011.4
20260509114038 61 351 0.0 1.7 0.00 0.00 0.00 65 1011.5
20260509113541 62 351 0.0 2.6 0.00 0.00 0.00 65 1011.6
20260509113039 62 351 0.9 2.6 0.00 0.00 0.00 65 1011.4
20260509112536 62 351 0.0 1.7 0.00 0.00 0.00 66 1011.4
20260509112036 62 351 0.0 1.7 0.00 0.00 0.00 66 1011.5
20260509111535 62 351 0.0 2.6 0.00 0.00 0.00 65 1011.3
20260509110528 62 351 0.0 2.6 0.00 0.00 0.00 65 1011.5
20260509110029 62 351 0.9 2.6 0.00 0.00 0.00 65 1011.6
20260509105529 62 351 0.9 2.6 0.00 0.00 0.00 65 1011.6
20260509105031 62 351 0.9 2.6 0.00 0.00 0.00 65 1011.7
20260509104527 63 351 0.9 1.7 0.00 0.00 0.00 65 1011.5
20260509104026 63 351 0.0 1.7 0.00 0.00 0.00 65 1011.4
20260509103525 63 351 0.0 1.7 0.00 0.00 0.00 65 1011.4
20260509103025 63 351 0.0 3.5 0.00 0.00 0.00 65 1011.4
20260509102523 63 351 0.9 3.5 0.00 0.00 0.00 64 1011.5
20260509102027 63 289 1.7 3.5 0.00 0.00 0.00 64 1011.5
20260509101534 64 216 0.0 0.0 0.00 0.00 0.00 64 1011.3
20260509100523 64 215 0.0 1.7 0.00 0.00 0.00 64 1011.5
20260509100025 64 215 0.0 1.7 0.00 0.00 0.00 64 1011.5
20260509095523 64 215 0.0 0.9 0.00 0.00 0.00 64 1011.4
20260509095023 64 215 0.0 2.6 0.00 0.00 0.00 64 1011.5
20260509094523 64 215 0.0 2.6 0.00 0.00 0.00 64 1011.3
20260509094022 64 215 0.9 2.6 0.00 0.00 0.00 63 1011.2
20260509093523 65 216 0.9 3.5 0.00 0.00 0.00 63 1011.1
20260509093023 65 216 1.7 3.5 0.00 0.00 0.00 64 1011.1
20260509092522 65 227 1.7 3.5 0.00 0.00 0.00 64 1011.1
20260509092026 65 103 0.0 2.6 0.00 0.00 0.00 64 1011.3
20260509091523 64 103 2.6 4.3 0.00 0.00 0.00 64 1011.2
20260509090523 64 64 1.7 3.5 0.00 0.00 0.00 64 1011.1
20260509090022 64 100 0.0 1.7 0.00 0.00 0.00 64 1010.8
20260509085522 65 100 0.9 1.7 0.00 0.00 0.00 64 1010.6
20260509085021 65 100 0.0 1.7 0.00 0.00 0.00 64 1010.6
20260509084522 65 100 0.0 2.6 0.00 0.00 0.00 64 1010.6
20260509084021 65 101 0.9 2.6 0.00 0.00 0.00 64 1010.6
20260509083522 65 97 0.9 3.5 0.00 0.00 0.00 64 1010.6
20260509083021 65 207 0.0 3.5 0.00 0.00 0.00 64 1010.5
20260509082522 65 200 1.7 2.6 0.00 0.00 0.00 64 1010.4
20260509082020 65 57 0.0 3.5 0.00 0.00 0.00 64 1010.6
20260509081521 65 57 1.7 3.5 0.00 0.00 0.00 64 1010.7
20260509080522 66 66 0.0 1.7 0.00 0.00 0.00 63 1010.6
20260509080023 66 66 0.0 1.7 0.00 0.00 0.00 63 1010.6
20260509075522 66 64 0.9 1.7 0.00 0.00 0.00 62 1010.6
20260509075022 67 63 0.0 0.9 0.00 0.00 0.00 63 1010.7
20260509074522 67 63 0.0 1.7 0.00 0.00 0.00 62 1010.7
20260509074021 67 63 0.0 2.6 0.00 0.00 0.00 62 1010.8
20260509073523 67 63 0.9 2.6 0.00 0.00 0.00 62 1010.9
20260509073021 67 63 1.7 2.6 0.00 0.00 0.00 62 1010.8
20260509072521 67 62 0.9 2.6 0.00 0.00 0.00 62 1010.8
20260509072023 67 62 0.0 2.6 0.00 0.00 0.00 62 1010.9
20260509071520 67 62 0.0 4.3 0.00 0.00 0.00 62 1010.9
20260509070526 67 62 0.0 4.3 0.00 0.00 0.00 62 1010.8
20260509070022 67 62 2.6 4.3 0.00 0.00 0.00 61 1010.7
20260509065521 67 48 0.9 2.6 0.00 0.00 0.00 60 1010.7
20260509065021 68 61 0.9 2.6 0.00 0.00 0.00 60 1010.5
20260509064521 68 147 0.9 3.5 0.00 0.00 0.00 59 1010.4
20260509064022 68 162 0.9 5.2 0.00 0.00 0.00 59 1010.4
20260509063524 68 177 1.7 5.2 0.00 0.00 0.00 60 1010.4
20260509063021 68 193 0.9 3.5 0.00 0.00 0.00 60 1010.3
20260509062521 68 227 0.9 4.3 0.00 0.00 0.00 59 1010.3
20260509062021 68 122 2.6 4.3 0.00 0.00 0.00 59 1010.3
20260509061521 70 92 1.7 7.0 0.00 0.00 0.00 57 1010.3
20260509061124 70 92 1.7 7.0 0.00 0.00 0.00 57 1010.2
20260509060518 70 104 1.7 7.0 0.00 0.00 0.00 57 1010.3
20260509060018 70 206 3.5 7.0 0.00 0.00 0.00 57 1010.3
20260509055518 70 185 1.7 4.3 0.00 0.00 0.00 57 1010.4
20260509055018 70 180 2.6 5.2 0.00 0.00 0.00 57 1010.4
20260509054517 70 174 1.7 5.2 0.00 0.00 0.00 57 1010.4
20260509054017 70 169 2.6 7.0 0.00 0.00 0.00 56 1010.5
20260509053517 71 166 2.6 9.6 0.00 0.00 0.00 56 1010.4
20260509053016 71 158 5.2 11.3 0.00 0.00 0.00 56 1010.3
20260509052516 71 167 7.0 11.3 0.00 0.00 0.00 55 1010.4
20260509052017 71 229 4.3 9.6 0.00 0.00 0.00 55 1010.5
20260509051518 72 198 6.1 10.4 0.00 0.00 0.00 53 1010.4
20260509051117 72 198 6.1 10.4 0.00 0.00 0.00 53 1010.5
20260509050520 72 181 4.3 10.4 0.00 0.00 0.00 53 1010.5
20260509050017 72 218 5.2 8.7 0.00 0.00 0.00 53 1010.6
20260509045520 72 212 4.3 9.6 0.00 0.00 0.00 53 1010.6
20260509045016 72 196 4.3 8.7 0.00 0.00 0.00 53 1010.5
20260509044516 72 191 3.5 8.7 0.00 0.00 0.00 53 1010.6
20260509044016 73 191 3.5 8.7 0.00 0.00 0.00 53 1010.6
20260509043519 73 190 4.3 8.7 0.00 0.00 0.00 53 1010.5
20260509043015 73 224 6.1 8.7 0.00 0.00 0.00 54 1010.6
20260509042515 73 221 5.2 8.7 0.00 0.00 0.00 54 1010.6
20260509042017 72 215 5.2 8.7 0.00 0.00 0.00 54 1010.6
20260509041515 72 207 3.5 5.2 0.00 0.00 0.00 55 1010.6
20260509040514 71 185 3.5 6.1 0.00 0.00 0.00 55 1010.7
20260509040014 71 201 1.7 4.3 0.00 0.00 0.00 56 1010.6
20260509035518 71 199 2.6 4.3 0.00 0.00 0.00 56 1010.5
20260509035016 71 220 1.7 3.5 0.00 0.00 0.00 55 1010.5
20260509034535 71 220 0.9 3.5 0.00 0.00 0.00 55 1010.6
20260509034015 71 220 1.7 5.2 0.00 0.00 0.00 55 1010.4
20260509033513 71 222 1.7 6.1 0.00 0.00 0.00 55 1010.2
20260509033014 71 197 4.3 6.1 0.00 0.00 0.00 54 1010.1
20260509032514 71 177 2.6 5.2 0.00 0.00 0.00 54 1009.9
20260509032017 72 117 1.7 6.1 0.00 0.00 0.00 54 1009.7
20260509031513 73 193 0.9 2.6 0.00 0.00 0.00 52 1009.9
20260509030513 73 46 0.9 1.7 0.00 0.00 0.00 52 1009.6
20260509030015 73 46 0.0 1.7 0.00 0.00 0.00 52 1009.5
20260509025514 73 46 0.0 2.6 0.00 0.00 0.00 52 1009.5
20260509025012 73 46 0.0 2.6 0.00 0.00 0.00 51 1009.4
20260509024513 73 46 0.9 2.6 0.00 0.00 0.00 51 1009.5
20260509024013 74 47 0.9 2.6 0.00 0.00 0.00 50 1009.6
20260509023511 74 47 0.0 0.9 0.00 0.00 0.00 50 1009.6
20260509023012 74 47 0.0 4.3 0.00 0.00 0.00 50 1009.6
20260509022512 74 47 0.9 4.3 0.00 0.00 0.00 50 1009.7
20260509022012 75 65 1.7 3.5 0.00 0.00 0.00 49 1009.7
20260509021512 75 71 1.7 3.5 0.00 0.00 0.00 49 1009.9
20260509020516 76 135 1.7 7.8 0.00 0.00 0.00 47 1009.7
20260509020012 76 187 3.5 7.8 0.00 0.00 0.00 47 1009.8
20260509015512 76 190 2.6 3.5 0.00 0.00 0.00 47 1009.8
20260509015011 76 182 1.7 3.5 0.00 0.00 0.00 47 1009.7
20260509014511 77 190 1.7 3.5 0.00 0.00 0.00 46 1009.8
20260509014012 77 181 0.9 5.2 0.00 0.00 0.00 46 1009.7
20260509013515 77 180 1.7 7.0 0.00 0.00 0.00 46 1009.8
20260509013012 77 191 2.6 7.0 0.00 0.00 0.00 45 1009.7
20260509012510 77 211 2.6 7.0 0.00 0.00 0.00 45 1009.5
20260509012010 77 201 3.5 6.1 0.00 0.00 0.00 45 1009.4
20260509011511 78 207 2.6 7.8 0.00 0.00 0.00 45 1009.3
20260509011112 78 193 4.3 7.8 0.00 0.00 0.00 44 1009.3
20260509010509 78 208 4.3 7.8 0.00 0.00 0.00 44 1009.2
20260509010010 78 195 3.5 7.8 0.00 0.00 0.00 44 1009.0
20260509005509 79 195 2.6 7.8 0.00 0.00 0.00 43 1008.9
20260509005010 79 191 3.5 7.0 0.00 0.00 0.00 42 1008.8
20260509004509 79 202 2.6 5.2 0.00 0.00 0.00 42 1008.7
20260509004009 79 192 1.7 4.3 0.00 0.00 0.00 42 1008.7
20260509003509 79 175 1.7 4.3 0.00 0.00 0.00 41 1008.7
20260509003010 79 234 0.9 2.6 0.00 0.00 0.00 41 1008.8
20260509002511 79 234 0.9 2.6 0.00 0.00 0.00 41 1008.8
20260509002008 79 234 0.9 1.7 0.00 0.00 0.00 41 1008.8
20260509001508 79 235 0.9 1.7 0.00 0.00 0.00 41 1009.1
20260509000511 79 234 0.9 5.2 0.00 0.00 0.00 41 1009.1
20260509000011 79 234 1.7 5.2 0.00 0.00 0.00 41 1009.1
20260508235511 79 210 2.6 5.2 0.00 0.00 0.00 40 1008.9
20260508235011 79 220 1.7 3.5 0.00 0.00 0.00 40 1008.8
20260508234511 79 208 1.7 3.5 0.00 0.00 0.00 40 1008.6
20260508234011 80 207 1.7 3.5 0.00 0.00 0.00 40 1008.5
20260508233510 80 195 1.7 3.5 0.00 0.00 0.00 39 1008.4
20260508233010 80 166 0.9 3.5 0.00 0.00 0.00 40 1008.4
20260508232510 80 160 0.9 3.5 0.00 0.00 0.00 39 1008.4
20260508232012 80 164 1.7 3.5 0.00 0.00 0.00 39 1008.4
20260508231510 80 187 0.9 3.5 0.00 0.00 0.00 39 1008.4
20260508230510 80 193 1.7 4.3 0.00 0.00 0.00 39 1008.1
20260508230006 80 189 1.7 4.3 0.00 0.00 0.00 39 1008.2
20260508225509 80 177 1.7 3.5 0.00 0.00 0.00 39 1008.1
20260508225006 80 211 0.0 1.7 0.00 0.00 0.00 39 1008.1
20260508224510 80 176 0.0 2.6 0.00 0.00 0.00 39 1008.1
20260508224009 80 177 1.7 3.5 0.00 0.00 0.00 38 1007.9
20260508223504 80 181 1.7 3.5 0.00 0.00 0.00 39 1008.0
20260508223004 80 152 1.7 3.5 0.00 0.00 0.00 39 1008.0
20260508222503 80 144 1.7 3.5 0.00 0.00 0.00 39 1008.0
20260508222002 81 142 1.7 4.3 0.00 0.00 0.00 39 1008.2
20260508221505 80 203 0.9 3.5 0.00 0.00 0.00 39 1008.3
20260508220600 80 273 0.9 4.3 0.00 0.00 0.00 39 1008.5
20260508220501 80 273 0.0 4.3 0.00 0.00 0.00 39 1008.5
20260508215600 80 203 2.6 7.0 0.00 0.00 0.00 39 1008.6
20260508215059 80 39 0.9 5.2 0.00 0.00 0.00 40 1008.6
20260508214608 80 48 1.7 5.2 0.00 0.00 0.00 41 1008.6
20260508214057 80 189 1.7 5.2 0.00 0.00 0.00 41 1008.8
20260508213556 79 49 3.5 5.2 0.00 0.00 0.00 41 1008.8
20260508213055 79 150 0.9 4.3 0.00 0.00 0.00 43 1008.8
20260508212555 78 285 1.7 5.2 0.00 0.00 0.00 44 1008.7
20260508212055 78 218 2.6 5.2 0.00 0.00 0.00 44 1008.9
20260508211555 78 256 2.6 6.1 0.00 0.00 0.00 44 1009.0
20260508211153 78 251 2.6 7.0 0.00 0.00 0.00 44 1009.1
20260508210557 78 251 2.6 7.0 0.00 0.00 0.00 44 1009.1
20260508210055 79 224 4.3 7.0 0.00 0.00 0.00 43 1009.3
20260508205552 78 153 0.9 5.2 0.00 0.00 0.00 46 1009.3
20260508205050 77 238 1.7 5.2 0.00 0.00 0.00 47 1009.4
20260508204551 77 185 2.6 7.0 0.00 0.00 0.00 47 1009.4
20260508204048 77 99 1.7 6.1 0.00 0.00 0.00 48 1009.4